Regional Weather Roundup
Issued by NWS Wakefield, VA

Home | Current Version | Previous Version | Text Only | Print | Product List | Glossary Off
Versions: 1 2 3 4 5 6 7 8 9 10 11 12 13 14 15 16 17 18 19 20 21 22 23 24 25 26 27 28 29 30 31 32 33 34 35 36 37 38 39 40 41 42 43 44 45 46 47 48 49 50

000
ASUS41 KAKQ 272210
RWRAKQ

REGIONAL WEATHER ROUNDUP
NATIONAL WEATHER SERVICE WAKEFIELD VA
600 PM EDT WED AUG 27 2014

Note: "fair" indicates few or no clouds below 12,000 feet with no
significant weather and/or obstructions to visibility. * = Denotes
station may not report precipitation (e.g., rain,snow,etc.),
thunder or fog.

VAZ042-051-052>054-056-272300-
NORTHERN VIRGINIA

CITY           SKY/WX    TMP DP  RH WIND       PRES   REMARKS
WASH NATIONAL  MOSUNNY   89  65  44 CALM      29.94F
DULLES         MOSUNNY   86  66  51 W5        29.95F
FORT BELVOIR   SUNNY     87  65  47 SW7       29.94F
QUANTICO       SUNNY     86  64  47 CALM      29.95F
FREDERICKSBRG* SUNNY     88  63  43 W3        29.94F
STAFFORD*      SUNNY     85  63  48 CALM      29.99F
WARRENTON      SUNNY     89  72  57 CALM      29.95F HX  95
CULPEPER*      SUNNY    N/A N/A N/A CALM      29.95F
MANASSAS*      SUNNY     86  66  51 SW5       29.95F
LEESBURG*      SUNNY     88  70  55 W3        29.96F
WINCHESTER     SUNNY     86  66  51 S7        29.96F
$$

VAZ048-049-060>072-079>083-272300-
CENTRAL AND SOUTH CENTRAL VIRGINIA...AND NORTH CENTRAL NORTH CAROLINA

CITY           SKY/WX    TMP DP  RH WIND       PRES   REMARKS
RICHMOND       MOSUNNY   89  58  34 NW5       29.95F
CHESTERFIELD*  CLEAR     88  57  35 NW8       29.98S
HANOVER        SUNNY     87  61  41 W9        29.97F
TAPPAHANNOCK*  SUNNY     86  56  34 CALM      29.96S
CHARLOTTSVILLE SUNNY     84  65  52 SW3       29.97F
ORANGE*        SUNNY     86  63  45 CALM      29.98F
LOUISA*        SUNNY     86  64  48 CALM      29.96F
FARMVILLE*     SUNNY     88  59  37 NE3       29.96F
SOUTH HILL*    SUNNY     84  61  45 CALM      30.03S
ROANOKE RAPIDS CLEAR     82  63  51 N7        29.97S
RALEIGH        SUNNY     85  58  39 N7        29.99S
$$

VAZ088>098-272300-
SOUTHEAST VIRGINIA

CITY           SKY/WX    TMP DP  RH WIND       PRES   REMARKS
NORFOLK        SUNNY     79  67  66 NE6       29.95F
VIRGINIA BEACH MOSUNNY   80  66  62 NW8       29.95S
NORFOLK NAVAL  MOSUNNY   81  62  52 NE7       29.96F
WEST POINT*    SUNNY     87  59  39 NE5       29.96S
NEWPORT NEWS   SUNNY     86  59  39 NE5       29.95S
LANGLEY AFB    SUNNY     82  58  43 N6        29.95S
FORT EUSTIS    SUNNY     85  59  40 NE6       29.94S
WILLIAMSBURG*  SUNNY     90  66  45 N3        29.96S
FRANKLIN*      SUNNY     84  61  45 CALM      29.95F
WAKEFIELD      SUNNY     85  62  46 CALM      29.95F
$$

VAZ020-022-025-037-045-272300-
WESTERN AND SOUTHWEST VIRGINIA

CITY           SKY/WX    TMP DP  RH WIND       PRES   REMARKS
STAUNTON*      SUNNY     85  63  48 E3        30.02F
HOT SPRINGS VA MOSUNNY   73  60  63 W7        30.18F
LYNCHBURG      SUNNY     83  63  50 CALM      30.02F
DANVILLE       SUNNY     85  63  47 NW6       30.00F
MARTINSVILLE   SUNNY     85  61  43 NE5       30.04F
ROANOKE        SUNNY     84  60  44 SW5       30.04F
BLACKSBURG     SUNNY     82  66  57 W5        30.11S
DUBLIN*        SUNNY     82  63  51 W3        30.10F
MARION*        SUNNY    N/A N/A N/A W5        30.15S
HILLSVILLE*    SUNNY     78  56  46 CALM      30.13F
RICHLANDS*     CLEAR     82  59  44 NW3       30.14F
WISE*          SUNNY     81  54  39 CALM      30.16F
ABINGDON*      SUNNY     83  57  41 CALM      30.11S
$$

MDZ021>025-VAZ099-100-272300-
SOUTHERN MARYLAND AND THE DELMARVA PENINSULA

CITY           SKY/WX    TMP DP  RH WIND       PRES   REMARKS
PATUXENT RIVER MOSUNNY   83  64  52 SW6       29.94F
BAY BRIDGE APT   N/A     84  63  48 S5        29.93F
LEONARDTOWN    SUNNY     84  59  42 SW8       29.96S
DOVER          SUNNY     83  67  58 E8        29.92F
GEORGETOWN     SUNNY     86  61  42 S6        29.94S
EASTON         SUNNY     88  63  42 NW6       29.98S
CAMBRIDGE      SUNNY     84  52  32 W3        29.94S
SALISBURY      SUNNY     85  67  54 SE10      29.94S
OCEAN CITY     SUNNY     77  64  64 SE5       29.95S
WALLOPS ISLAND SUNNY     80  65  59 S7        29.95F
ACCOMACK*      NOT AVBL
$$

NCZ012>017-030>032-272300-
EASTERN NORTH CAROLINA

CITY           SKY/WX    TMP DP  RH WIND       PRES   REMARKS
ELIZABETH CITY SUNNY     80  64  58 NE14      29.94S
AHOSKIE*       SUNNY     81  64  55 N3        29.96S
EDENTON*       MOSUNNY   83  67  59 N7        29.94S
CURRITUCK*     SUNNY     80  62  53 NE7       29.96S
KILL DEVIL HLS PTSUNNY   77  70  79 N8        29.94S
MANTEO         PTSUNNY   76  70  80 N13G18    29.95S
CAPE HATTERAS  MOSUNNY   78  72  81 N12G23    29.92S
GOLDSBORO      SUNNY     83  58  41 N8        29.95S
WASHINGTON     SUNNY     82  67  60 N7        29.95S
GREENVILLE     SUNNY     82  64  54 N7        29.98S
NEW BERN       MOSUNNY   85  68  56 N8        29.94S
WILMINGTON     SUNNY     85  67  54 N8        29.94R
$$

VAZ048-272300-
ELSEWHERE

CITY           SKY/WX    TMP DP  RH WIND       PRES   REMARKS
HARRISBURG PA  MOSUNNY   87  72  60 SW7       29.91F
BALTIMORE      MOSUNNY   88  65  46 W5        29.92F
ANNAPOLIS      SUNNY     83  67  58 SE8       29.93F
ANDREWS AFB    SUNNY     86  66  51 SW9       29.94F
WILMINGTON DE  SUNNY     86  67  52 SW8       29.92F
PHILADELPHIA   MOSUNNY   88  65  46 SW10      29.91S
WILDWOOD NJ*   SUNNY     82  59  44 SW5       29.94S
ATLANTIC CITY  SUNNY     81  65  58 S10       29.92S
HENDERSON NC   SUNNY     82  58  43 N5        29.99F
GREENSBORO     MOSUNNY   86  60  41 N8        30.02S
ROCKY MOUNT    SUNNY     84  61  45 N7        29.97S
FAYETTEVILLE   SUNNY     87  60  40 NE9       29.96S
CHARLOTTE      MOSUNNY   85  53  33 NW3       30.03S
$$

VAZ100-272300-
MARINE

STATION/POSITION TIME  TEMP    WIND        PRES    WAVE   SWELL
                       AIR SEA DIR/SP/G            HT/PER HT/PER
                 (UTC) (F)     (DEG/KT/KT) (MB)    (FT/S) (FT/S)
44066 TX TWR #4  2200   75 76  240/  4/  4 1013.6F   6/12   5/12
CAPE MAY NJ      2200   80 81  230/  5/  5 1013.2F
LEWES DE         2200   81 77  160/  6/  9 1013.4F
15NM E FENWICK I 2200   75 77              1013.8F   4/ 8
OCEAN-CITY-INLET 2200   76 78  160/  5/  6 1013.7F
WACHAPREAGUE VA  2200   78 82  140/  2/  5 1014.2S
THOMAS POINT MD  2200   80 79  180/  9/ 10 1014.3F
GOOSES REEF MD   2200   82     150/  4/  4 1014.4S
COVE POINT MD    2200   81     180/  4/  5 1013.8F
SOLOMONS ISLAND  2200      82                N/A
BISHOPS HEAD MD  2200   80 80  250/  6/  6 1013.5F
PINEY POINT MD   2200          170/  2/  3   N/A
POTOMAC MD       2200   82     210/  4/  4 1013.5S
CAMBRIDGE MD     2200   84 78  330/  4/  5 1013.6F
LEWISETTA VA     2200   82 79  130/  2/  2 1013.7F
RAPPAHANNOCK LGT 2200          310/  5/  6 1014.7F
STINGRAY PT      2200   80      50/  4/  6   N/A
YORK RVR RNG VA  2200   79      90/  5/  6 1013.9F
YORKTOWN VA      2200   80 80   90/  6/  7 1014.1S
JAMESTOWN VA     2200   83      CALM  /  4   N/A
DOMINION TERM VA 2200   79     110/  5/  9 1014.4F
KIPTOPEKE VA     2200      82  340/  8/  9   N/A
CHES BAY BRIDGE  2200   77 78  350/  3/  5 1013.9S
CAPE HENRY VA    2200   76     360/  5/  6 1013.1F
CHESAPEAKE LGHT  2100   74      20/  8/  9 1014.8F
WILLOUBY STN VA  2200   78      50/  6/  7 1013.0F
S CRANEY ISL VA  2200          350/  5/  6 1013.9F
CAPE HENRY BUOY  2200      77                N/A     4/13   2/13
1ST LANDING BUOY 2200   77      10/  4/  6 1014.0F
CAPE CHARLES BUO 2200      77                N/A     6/14   5/14
OFFSHORE WE BUOY 2200      76                N/A     6/13   7/13
64NM E OF VA BCH 2200   76 78  360/ 16/ 19 1012.7F   9/13   7/13
DUCK PIER NC     2200   74 77   10/ 12/ 13 1013.4S
44056 DUCK FRF   2200                        N/A     6/13   3/13
OREGON INLET NC  2200   76 78  350/ 14/ 20 1013.4F
HATTERAS NC      2200   78 80   10/ 19/ 22 1013.5S
DIAMOND SHLS NC  2200   77     350/ 21/ 27 1011.7R  11/12   8/12
CAPE LOOKOUT NC  2100   80      40/ 15/ 18 1012.9S
$$


USA.gov is the U.S. government's official web portal to all federal, state and local government web resources and services.